RH
100 94 81 72 63 56 53 52 52 51 45 38 36 36 36 36 37 37 31 22 20 19 17 21 45 63 78 79 88 98 100 98 100 100 100 100 92 97 100 88 85 76 70
100 100 100 100 96 87 78 70 64 60 56 52 45 39 33 32 34 39 39 38 32 24 20 20 20 18 28 52 59 79 86 89 97 100 100 100 100 100 88 84 80 85 84
100 100 100 100 98 92 88 84 77 67 60 54 50 47 42 37 33 32 31 35 35 32 31 24 23 20 19 21 27 33 32 40 63 80 95 100 100 100 100 98 98 69 61
100 100 100 99 92 88 88 89 88 85 75 64 57 53 48 45 42 36 31 28 27 30 32 31 31 27 23 21 18 18 18 30 33 36 61 83 99 100 100 100 100 100 99
100 97 94 93 91 88 83 82 80 80 80 78 73 66 60 57 55 51 44 37 32 30 29 31 32 31 30 28 24 22 20 19 18 18 18 36 70 89 100 100 100 100 100
98 93 92 92 90 89 86 86 88 89 89 89 89 86 82 83 83 79 75 66 58 45 32 26 25 27 29 29 28 28 25 22 19 19 19 18 23 44 69 93 96 99 100
100 100 100 100 100 100 100 100 99 98 99 100 100 100 100 97 89 81 77 74 67 56 47 41 35 30 26 27 27 26 24 23 24 22 18 18 18 18 27 42 61 72 88
100 100 100 100 100 100 100 97 94 94 94 95 96 100 100 100 97 93 92 96 98 84 69 57 45 35 29 26 26 29 28 25 24 22 22 21 18 17 18 17 22 22 44
99 99 100 99 96 96 100 100 98 98 100 100 99 93 92 98 91 80 78 72 66 67 63 57 45 35 30 27 22 21 19 21 25 25 24 24 24 20 18 17 16 16 18
100 98 91 89 92 94 94 96 95 94 92 99 98 96 94 86 78 75 69 58 52 51 41 33 30 28 26 22 21 19 18 17 17 17 18 19 21 21 22 20 18 16 15
86 79 70 74 82 84 80 73 66 62 59 60 56 56 53 55 55 54 48 35 26 27 25 30 26 25 20 17 17 15 13 11 14 13 14 14 16 17 17 20 21 18 17
58 60 66 68 64 57 58 59 57 51 48 46 43 45 44 46 40 37 34 34 27 25 22 24 23 19 16 16 15 13 11 11 11 11 11 15 16 16 16 16 17 18 17
63 68 67 64 64 61 55 51 49 45 44 44 38 35 36 34 32 31 30 26 23 22 18 16 16 15 15 14 12 11 11 9 8 8 9 10 12 15 16 18 16 16 16
66 63 62 60 50 42 40 39 39 35 33 31 29 29 28 27 24 22 20 20 19 18 14 11 8 7 6 5 4 4 4 4 4 5 6 7 9 11 12 14 15 17 16
55 53 51 46 44 44 41 38 38 34 30 26 24 23 22 20 19 17 14 10 8 6 5 4 4 4 4 3 3 3 3 3 2 3 3 5 6 8 9 11 11 12 15
53 50 48 46 43 41 36 31 27 25 22 20 17 14 12 11 9 7 6 5 5 5 4 4 4 4 3 3 3 3 3 3 3 3 2 2 3 5 6 7 10 10 12
65 59 51 42 35 29 24 20 17 15 13 10 8 7 6 6 5 6 5 5 4 4 4 4 4 4 4 3 3 3 3 3 3 3 2 2 2 2 3 5 7 8 10
48 38 30 24 20 17 14 11 10 8 6 6 5 5 5 5 5 5 5 5 5 5 5 5 5 5 4 4 4 3 3 3 3 3 3 3 2 2 2 2 4 6 7
23 19 17 14 10 8 6 6 6 6 5 5 5 5 5 5 5 5 5 5 5 5 5 5 5 4 5 4 4 4 4 4 4 4 3 3 3 2 2 2 2 2 4
13 10 8 7 6 6 5 5 5 5 4 4 5 5 5 5 5 5 5 5 5 5 5 5 4 3 3 4 4 4 4 4 4 4 4 3 3 3 2 2 2 3 3
8 7 7 6 5 5 4 4 4 4 4 5 5 5 5 5 4 4 4 4 4 5 4 4 3 3 4 3 3 4 4 4 4 4 3 3 3 3 3 2 2 3 3
6 6 5 5 5 4 4 5 5 4 5 5 5 4 3 3 3 4 4 4 4 4 4 4 4 3 4 4 3 4 4 4 4 3 3 3 3 3 3 3 3 3 3
6 6 6 6 5 5 5 6 5 4 4 4 3 3 3 3 4 4 5 5 4 4 4 4 4 4 4 4 4 3 3 4 4 3 3 3 3 3 3 3 3 3 3
6 6 6 6 6 6 6 5 4 4 5 4 3 3 3 4 4 5 5 5 4 4 4 4 4 4 4 4 4 4 3 3 3 3 3 3 3 3 3 3 3 3 3
6 6 6 6 6 6 5 4 5 5 5 4 3 3 4 5 5 5 4 5 4 5 4 5 4 4 4 4 4 4 3 3 3 3 3 3 3 3 3 4 4 3 3
8 7 6 6 6 6 5 5 5 5 5 4 4 4 4 4 4 4 4 5 5 5 4 5 5 5 4 5 5 5 4 3 3 4 4 4 4 4 3 3 3 3 3
Wind_Speed
82 84 84 83 83 82 80 80 78 78 76 75 75 75 74 74 75 76 77 78 80 81 88 88 96 100 102 105 105 104 105 103 99 95 90 95 95 91 87 88 87 85 85
88 89 89 88 88 89 89 88 87 86 87 86 84 83 82 83 83 83 84 86 87 86 87 89 90 95 100 104 103 105 108 109 107 104 105 101 97 100 101 97 97 95 92
95 96 95 95 96 95 95 94 94 94 93 92 92 92 91 91 91 91 92 93 94 95 95 95 94 95 99 101 103 105 106 106 109 111 112 109 109 103 103 102 102 103 101
100 100 101 101 101 102 101 101 100 99 99 98 98 99 99 99 100 100 100 100 100 101 101 102 103 103 102 102 107 109 108 109 110 113 115 114 117 115 113 105 108 107 105
104 105 105 104 104 104 104 103 103 103 103 103 103 103 103 104 106 107 107 108 108 108 108 108 108 109 109 109 109 108 111 112 113 114 113 116 118 120 119 114 111 110 109
104 105 106 106 107 106 106 106 107 108 108 109 110 111 111 112 113 115 116 117 118 119 119 117 117 116 116 117 117 117 116 115 117 119 120 120 121 122 119 120 119 119 115
108 109 110 110 110 110 111 111 112 113 114 114 116 118 119 121 123 124 125 126 128 129 130 130 130 128 127 125 124 124 124 124 123 122 125 126 125 123 129 124 120 122 124
114 115 115 116 116 117 117 118 119 120 121 122 123 125 127 128 131 132 134 135 137 138 140 142 142 140 138 136 134 133 132 131 131 130 129 129 132 132 129 128 129 124 124
119 120 121 122 123 124 125 126 127 127 128 130 132 134 137 138 141 142 145 147 147 149 151 153 154 153 153 150 146 143 141 141 141 141 139 138 136 135 136 136 132 131 129
123 125 127 128 130 131 133 134 135 137 137 139 141 143 148 149 150 152 157 157 156 157 160 159 159 159 154 150 148 143 145 139 139 145 149 149 146 143 141 142 140 138 133
126 129 131 133 135 137 139 141 140 138 137 138 140 141 142 147 149 150 152 154 154 152 149 149 148 151 142 139 135 130 125 123 126 129 136 142 145 150 149 148 146 144 141
115 121 125 129 130 130 131 133 135 134 135 135 138 138 141 143 146 151 155 152 153 156 152 152 150 146 143 141 137 131 126 124 123 125 126 125 135 140 147 152 153 150 148
117 118 120 122 124 126 126 126 127 128 131 135 139 143 145 147 148 152 154 152 146 144 144 142 142 143 142 142 141 139 136 132 129 128 129 133 140 136 140 145 152 156 155
112 113 114 116 120 122 124 124 126 128 131 134 137 139 141 141 141 142 144 146 146 146 144 140 136 132 131 130 129 128 128 130 130 133 136 137 142 148 151 153 154 152 156
110 112 115 117 119 122 125 127 129 131 132 134 136 137 139 142 144 143 142 138 133 127 122 117 114 113 112 113 112 113 116 118 120 126 135 141 147 151 155 156 161 164 160
112 115 117 119 123 126 128 131 134 137 140 140 140 138 136 134 130 126 122 118 114 111 108 106 104 105 105 103 101 103 104 104 107 114 121 128 140 148 153 160 160 166 167
118 121 124 128 131 134 137 138 139 139 136 132 128 123 120 117 113 111 109 107 104 101 100 99 98 98 97 95 95 96 93 94 99 104 109 114 122 132 143 154 158 163 167
126 130 134 136 137 137 134 130 128 126 121 118 113 110 107 106 104 102 100 98 95 93 92 91 91 90 90 90 90 89 87 87 92 96 100 105 111 117 124 134 148 157 162
134 135 135 132 129 124 118 114 112 108 106 104 102 101 98 96 94 92 90 88 87 86 85 85 84 82 84 83 82 81 79 81 86 89 93 95 100 107 114 117 125 138 152
128 123 117 114 110 106 102 99 97 94 94 91 91 91 90 87 85 84 82 81 79 79 78 78 77 77 77 77 76 75 74 78 81 83 86 89 92 97 102 106 113 119 130
109 106 101 98 96 93 89 88 87 86 84 83 82 82 81 80 78 76 74 74 73 73 74 73 74 72 71 73 71 69 71 75 78 79 81 84 87 91 95 96 99 107 118
95 93 88 87 86 83 80 80 80 78 76 76 76 76 75 72 69 68 69 68 68 67 68 66 67 66 65 66 66 65 67 70 72 75 76 79 81 84 87 90 92 96 104
84 82 80 80 80 78 75 74 74 71 68 70 71 69 66 63 60 60 62 62 61 61 61 60 62 62 60 60 60 62 62 64 66 69 71 73 75 75 78 82 85 89 94
76 73 73 73 74 71 71 68 67 64 64 64 64 61 58 54 52 53 55 56 56 56 57 56 57 57 55 53 55 57 58 60 61 62 66 68 68 69 72 75 77 81 84
69 67 66 67 65 64 64 61 59 60 61 60 57 53 50 49 50 51 51 51 52 51 50 51 52 50 49 46 49 52 55 56 55 56 60 63 63 64 66 68 71 74 77
65 64 63 62 59 58 58 54 55 55 55 54 51 49 48 47 47 48 47 47 47 46 45 45 47 45 43 41 44 47 51 51 52 54 56 58 59 61 62 63 65 68 72
Wind_Direction
273 274 274 274 274 273 271 271 271 271 268 266 264 262 262 261 261 261 259 256 258 254 251 251 252 252 252 251 251 252 253 249 245 244 249 253 250 248 250 251 252 250 251
274 274 274 273 273 273 273 272 272 271 270 270 269 265 263 261 261 260 259 258 257 255 255 255 254 251 250 249 251 252 252 251 248 250 244 245 251 254 252 252 250 252 252
272 272 273 273 272 273 272 272 271 271 271 271 270 270 268 267 264 261 259 259 258 257 256 254 255 254 254 254 252 249 249 251 250 248 247 245 244 244 249 252 252 253 252
270 271 271 271 271 272 273 273 273 273 272 271 271 270 269 268 267 266 264 262 260 259 257 256 255 254 255 254 253 251 251 249 251 251 248 246 245 245 244 244 248 250 250
270 270 270 271 271 272 272 272 272 272 273 273 272 271 270 269 268 268 267 266 265 263 261 259 257 255 253 252 253 253 254 252 252 252 251 249 245 246 245 247 243 244 249
270 271 271 272 272 273 273 273 273 273 273 273 272 272 272 271 270 269 268 267 267 265 263 261 259 258 256 254 253 252 252 252 253 252 251 251 248 247 245 245 249 243 243
270 270 270 272 272 273 273 273 273 273 273 272 272 270 270 269 269 269 268 267 267 266 266 265 264 262 260 258 256 255 253 251 250 251 252 251 250 248 246 245 244 247 246
270 270 271 271 271 271 271 271 271 271 271 271 271 270 269 269 269 269 269 268 268 267 267 267 267 265 263 260 258 256 256 254 252 250 249 250 251 250 248 245 243 243 245
269 269 270 271 271 271 271 271 271 271 271 270 270 270 269 269 269 269 268 268 269 269 268 267 267 267 267 265 264 260 257 255 254 252 251 249 249 249 249 248 245 242 241
270 271 272 272 271 271 271 271 271 271 271 271 270 271 270 271 271 271 270 270 271 271 270 270 271 269 270 270 267 265 263 260 257 253 250 250 250 248 246 246 245 244 241
275 276 275 273 273 273 273 273 273 273 273 272 272 271 270 270 268 268 269 272 273 274 273 272 273 272 272 272 271 269 264 259 258 254 250 247 248 248 246 243 243 243 243
276 275 275 274 274 275 276 276 276 274 271 270 269 267 268 268 270 270 272 273 273 273 274 273 275 273 273 274 272 269 263 259 254 250 246 246 245 244 244 244 242 241 241
279 279 278 277 277 277 277 276 275 274 273 273 273 270 270 271 272 271 272 274 275 274 275 275 274 273 271 270 267 265 263 260 254 251 246 242 238 238 239 240 241 241 240
280 278 276 276 276 276 277 277 277 276 276 275 274 275 275 275 276 276 276 276 277 276 276 274 272 270 268 265 262 260 258 255 251 247 244 240 237 236 236 235 235 236 238
281 281 280 280 280 280 279 279 279 278 278 278 277 277 278 279 279 279 278 278 277 275 274 272 270 268 265 263 260 258 256 254 252 250 246 242 239 237 235 235 235 234 234
282 282 280 280 280 280 280 280 280 281 281 282 282 282 281 280 280 279 278 277 276 274 273 272 270 268 266 264 262 259 256 254 252 250 248 245 243 239 238 237 235 234 233
282 282 282 282 282 283 284 284 284 284 284 284 284 283 282 281 280 279 278 277 276 275 273 271 269 267 266 264 261 259 258 256 253 250 248 246 244 242 240 237 237 236 235
282 283 284 285 286 286 286 286 286 285 284 284 283 282 281 280 279 279 278 277 275 273 271 270 268 267 265 263 262 260 257 255 253 251 249 247 245 243 241 239 237 236 237
286 287 287 287 287 287 287 286 285 284 284 283 282 281 280 279 279 278 277 275 274 272 271 270 268 266 264 263 261 259 257 254 252 251 250 248 246 244 241 240 239 238 236
289 289 288 288 288 287 287 286 285 284 282 282 282 281 281 280 279 277 276 275 274 272 270 269 267 266 264 263 260 258 256 253 252 251 249 248 247 246 243 240 239 238 237
290 290 289 289 288 288 288 287 285 283 284 284 282 281 280 280 279 278 277 275 273 270 269 268 266 264 262 262 260 257 254 253 251 249 248 248 247 247 246 243 240 237 237
292 291 291 291 289 289 289 288 287 288 287 284 282 280 279 278 277 276 274 272 271 269 267 266 265 264 262 261 260 256 253 252 251 251 250 249 247 246 246 245 241 239 238
293 293 293 292 291 292 292 290 289 288 287 283 281 279 280 280 278 274 272 271 270 269 268 266 265 263 261 260 258 256 254 251 250 250 249 249 247 245 245 244 242 240 239
294 294 292 292 292 293 291 290 290 290 286 284 283 283 284 282 278 274 270 269 268 267 267 265 264 263 260 258 256 255 253 251 249 248 249 249 249 247 246 245 243 240 240
297 297 295 294 294 294 293 293 291 289 287 286 287 287 283 278 276 272 269 268 267 265 264 264 263 262 260 255 254 252 252 250 248 247 248 249 249 248 246 245 243 241 241
300 298 298 297 298 296 295 295 292 289 288 289 288 284 278 275 273 272 271 269 267 265 264 262 262 261 259 255 252 251 250 249 248 246 246 247 248 248 247 245 243 241 240